EW5627 Weather Reports


Display with metric or nautical units.
time (UTC)temp
F
wind
direction
speed
MPH
gust
MPH
rain 1hr
in
rain 24hr
in
rain mn
in
humidity
%
barometer
mb
20260906163040 70 360 0.0 1.0 0.00 0.01 0.01 78 1014.4
20260906161549 69 360 0.0 2.0 0.00 0.01 0.01 78 1014.4
20260906160037 69 360 0.0 2.0 0.00 0.01 0.01 78 1014.5
20260906154543 69 360 0.0 5.0 0.00 0.01 0.01 79 1014.5
20260906153042 68 355 0.0 0.0 0.00 0.01 0.01 81 1014.5
20260906151531 68 360 1.0 4.0 0.00 0.01 0.01 81 1014.5
20260906150036 68 338 0.0 4.0 0.00 0.01 0.01 80 1014.5
20260906144530 68 32 0.0 2.0 0.00 0.01 0.01 80 1014.4
20260906143023 67 28 0.0 3.0 0.00 0.01 0.01 82 1014.3
20260906141520 66 24 0.0 4.0 0.00 0.01 0.01 83 1014.1
20260906140017 66 5 1.0 8.0 0.00 0.01 0.01 84 1014.1
20260906134515 65 26 0.0 0.0 0.00 0.01 0.01 88 1014.2
20260906133013 64 36 0.0 2.0 0.00 0.01 0.01 89 1014.1
20260906131511 64 28 0.0 0.0 0.00 0.01 0.01 91 1014.0
20260906130013 63 28 0.0 0.0 0.00 0.01 0.01 92 1013.9
20260906124510 63 28 0.0 0.0 0.00 0.01 0.01 92 1013.9
20260906123016 63 28 0.0 0.0 0.00 0.01 0.01 93 1013.8
20260906121518 63 28 0.0 0.0 0.00 0.01 0.01 93 1013.8
20260906120005 63 28 0.0 0.0 0.00 0.01 0.01 93 1013.6
20260906114502 62 28 0.0 0.0 0.00 0.01 0.01 93 1013.5
20260906113100 62 28 0.0 0.0 0.00 0.01 0.01 93 1013.3
20260906111558 62 28 0.0 0.0 0.00 0.01 0.01 93 1013.1
20260906110057 62 28 0.0 1.0 0.00 0.01 0.01 93 1013.0
20260906104553 62 28 0.0 0.0 0.00 0.01 0.01 92 1012.8
20260906103051 62 28 0.0 0.0 0.00 0.01 0.01 92 1012.6
20260906101548 62 28 0.0 0.0 0.01 0.01 0.01 92 1012.3
20260906100046 63 28 0.0 0.0 0.01 0.01 0.01 92 1012.1
20260906094557 63 28 0.0 0.0 0.01 0.01 0.01 92 1012.2
20260906093049 63 28 0.0 0.0 0.01 0.01 0.01 92 1012.1
20260906091542 63 28 0.0 0.0 0.00 0.00 0.00 92 1011.9
20260906090050 63 28 0.0 0.0 0.00 0.00 0.00 92 1011.7
20260906084542 63 28 0.0 0.0 0.00 0.00 0.00 92 1011.7
20260906083046 63 28 0.0 0.0 0.00 0.00 0.00 91 1011.7
20260906081538 63 28 0.0 0.0 0.00 0.00 0.00 91 1011.3
20260906080044 63 28 0.0 0.0 0.00 0.00 0.00 91 1011.4
20260906074535 64 28 0.0 0.0 0.00 0.00 0.00 91 1011.5
20260906073034 64 29 0.0 0.0 0.00 0.00 0.00 91 1011.4
20260906071533 64 28 0.0 0.0 0.00 0.00 0.00 91 1011.3
20260906070032 64 29 0.0 2.0 0.00 0.00 0.00 91 1011.5
20260906064532 64 29 0.0 0.0 0.00 0.00 0.00 91 1011.3
20260906063030 64 29 0.0 0.0 0.00 0.00 0.00 91 1011.5
20260906061530 64 29 0.0 0.0 0.00 0.00 0.00 91 1011.7
20260906060029 64 29 0.0 1.0 0.00 0.00 0.00 90 1011.7
20260906054528 64 29 0.0 0.0 0.00 0.00 0.00 89 1011.7
20260906053026 64 29 0.0 0.0 0.00 0.00 0.00 89 1011.7
20260906051525 65 29 0.0 0.0 0.00 0.00 0.00 88 1011.7
20260906050024 65 29 0.0 0.0 0.00 0.00 0.00 88 1011.6
20260906044523 65 29 0.0 1.0 0.00 0.00 0.00 87 1011.6
20260906043029 65 29 0.0 0.0 0.00 0.00 0.00 87 1011.5
20260906041521 65 29 0.0 0.0 0.00 0.00 0.00 86 1011.6
20260906040021 65 29 0.0 2.0 0.00 0.00 0.00 85 1011.6
20260906034532 65 30 0.0 0.0 0.00 0.00 0.00 85 1011.5
20260906033018 65 30 0.0 0.0 0.00 0.00 0.00 84 1011.4
20260906031525 65 30 0.0 0.0 0.00 0.00 0.00 83 1011.2
20260906030016 66 30 0.0 2.0 0.00 0.00 0.00 82 1011.2
20260906024515 66 30 0.0 2.0 0.00 0.00 0.00 81 1011.3
20260906023013 67 29 0.0 0.0 0.00 0.00 0.00 81 1011.0
20260906021513 67 29 1.0 3.0 0.00 0.00 0.00 81 1011.0
20260906020012 67 29 0.0 3.0 0.00 0.00 0.00 80 1011.0
20260906014512 67 13 0.0 0.0 0.00 0.00 0.00 80 1011.0
20260906013011 67 13 0.0 1.0 0.00 0.00 0.00 79 1010.9
20260906011510 67 12 0.0 0.0 0.00 0.00 0.00 78 1010.8
20260906010009 68 19 0.0 0.0 0.00 0.00 0.00 77 1010.7
20260906004506 68 19 0.0 0.0 0.00 0.00 0.00 76 1010.5
20260906003005 68 19 0.0 0.0 0.00 0.00 0.00 75 1010.4
20260906001504 68 19 0.0 0.0 0.00 0.00 0.00 75 1010.2
20260906000002 69 19 0.0 0.0 0.00 0.00 0.00 73 1010.0
20260905234503 70 19 0.0 0.0 0.00 0.00 0.00 72 1009.9
20260905233101 70 19 0.0 0.0 0.00 0.00 0.00 72 1009.9
20260905231607 71 19 0.0 0.0 0.00 0.00 0.00 71 1009.8
20260905224559 72 19 0.0 0.0 0.00 0.00 0.00 68 1009.5
20260905223057 73 19 0.0 0.0 0.00 0.00 0.00 67 1009.4
20260905221600 74 19 0.0 0.0 0.00 0.00 0.00 66 1009.3
20260905220058 74 19 0.0 0.0 0.00 0.00 0.00 64 1009.3
20260905214554 76 19 0.0 3.0 0.00 0.00 0.00 63 1009.1
20260905213054 76 15 0.0 2.0 0.00 0.00 0.00 61 1009.2
20260905211553 78 15 1.0 3.0 0.00 0.00 0.00 59 1009.1
20260905210107 79 23 1.0 3.0 0.00 0.00 0.00 60 1009.0
20260905204553 78 84 0.0 2.0 0.00 0.00 0.00 59 1008.9
20260905203052 79 80 1.0 5.0 0.00 0.00 0.00 58 1008.8
20260905201551 79 90 0.0 3.0 0.00 0.00 0.00 61 1008.8
20260905200113 78 59 1.0 4.0 0.00 0.00 0.00 59 1008.9
20260905194552 77 57 1.0 4.0 0.00 0.00 0.00 61 1008.7
20260905193049 77 277 1.0 3.0 0.00 0.00 0.00 61 1008.9
20260905191549 79 219 1.0 3.0 0.00 0.00 0.00 59 1008.9
20260905190047 79 283 1.0 3.0 0.00 0.00 0.00 60 1008.9
20260905184551 78 11 0.0 4.0 0.00 0.00 0.00 62 1009.0
20260905183044 78 58 0.0 3.0 0.00 0.00 0.00 63 1009.1
20260905181545 77 25 1.0 4.0 0.00 0.00 0.00 66 1009.2
20260905180043 77 225 0.0 0.0 0.00 0.00 0.00 67 1009.2
20260905174539 77 36 0.0 0.0 0.00 0.00 0.00 66 1009.4
20260905173045 76 78 0.0 4.0 0.00 0.00 0.00 67 1009.4
20260905171539 75 235 1.0 4.0 0.00 0.00 0.00 65 1009.6
20260905170037 76 15 1.0 3.0 0.00 0.00 0.00 65 1009.5
20260905164537 77 349 1.0 5.0 0.00 0.00 0.00 66 1009.7